CES33 YPDN-WADD

Flight info

Callsign CES33
Flight time 2h 17m
Altitude 38000
Route JULIE Q320 IDOTO M766 GABIT
Aircraft B77W/H-SDE1E2E3FGHIJ2J3J4J5M1RWXY/LB1D1

Departure

Time 2026-03-29 07:10
Airport Darwin International Airport / RAAF Darwin (YPDN)

Arrival

Time 2026-03-29 09:27
Airport Denpasar I Gusti Ngurah Rai International Airport (WADD)
Time Latitude Longitude Altitude Speed Heading
2026-03-29 06:26 -12.40891 130.87677 96 ft 0 kts 21°
2026-03-29 06:57 -12.40895 130.87675 99 ft 4 kts 21°
2026-03-29 06:57 -12.40922 130.87656 95 ft 8 kts 54°
2026-03-29 06:57 -12.40933 130.87604 95 ft 8 kts 114°
2026-03-29 06:58 -12.40901 130.87563 95 ft 3 kts 135°
2026-03-29 07:03 -12.40902 130.87564 96 ft 1 kts 135°
2026-03-29 07:03 -12.40916 130.87578 99 ft 6 kts 135°
2026-03-29 07:03 -12.40948 130.87601 100 ft 6 kts 158°
2026-03-29 07:03 -12.40988 130.87603 102 ft 6 kts 189°
2026-03-29 07:04 -12.41072 130.87576 107 ft 18 kts 198°
2026-03-29 07:04 -12.41194 130.87534 106 ft 18 kts 200°
2026-03-29 07:04 -12.41315 130.87494 107 ft 18 kts 200°
2026-03-29 07:04 -12.41437 130.87452 109 ft 18 kts 191°
2026-03-29 07:05 -12.41540 130.87487 107 ft 16 kts 127°
2026-03-29 07:05 -12.41599 130.87637 109 ft 31 kts 107°
2026-03-29 07:05 -12.41674 130.87876 104 ft 36 kts 110°
2026-03-29 07:05 -12.41758 130.88116 103 ft 35 kts 109°
2026-03-29 07:06 -12.41837 130.88349 103 ft 34 kts 110°
2026-03-29 07:06 -12.41912 130.88575 101 ft 33 kts 109°
2026-03-29 07:06 -12.41984 130.88789 103 ft 31 kts 108°
2026-03-29 07:06 -12.42051 130.88992 104 ft 26 kts 108°
2026-03-29 07:07 -12.42107 130.89165 102 ft 26 kts 113°
2026-03-29 07:07 -12.42133 130.89318 99 ft 17 kts 69°
2026-03-29 07:07 -12.42069 130.89381 98 ft 8 kts 24°
2026-03-29 07:07 -12.42056 130.89387 99 ft 0 kts 22°
2026-03-29 07:08 -12.41981 130.89409 101 ft 10 kts 11°
2026-03-29 07:08 -12.41917 130.89387 103 ft 10 kts 309°
2026-03-29 07:09 -12.41888 130.89316 105 ft 16 kts 292°
2026-03-29 07:09 -12.41797 130.89077 105 ft 66 kts 289°
2026-03-29 07:09 -12.41564 130.88377 97 ft 139 kts 289°
2026-03-29 07:09 -12.41186 130.87277 229 ft 178 kts 288°
2026-03-29 07:10 -12.40788 130.86081 911 ft 179 kts 291°
2026-03-29 07:10 -12.40379 130.84846 1602 ft 186 kts 289°
2026-03-29 07:10 -12.39933 130.83570 2204 ft 196 kts 289°
2026-03-29 07:10 -12.39461 130.82212 2698 ft 209 kts 289°
2026-03-29 07:11 -12.38963 130.80723 3020 ft 235 kts 288°
2026-03-29 07:11 -12.38425 130.79047 3307 ft 263 kts 287°
2026-03-29 07:11 -12.37838 130.77201 3822 ft 277 kts 288°
2026-03-29 07:11 -12.37188 130.75301 4478 ft 287 kts 289°
2026-03-29 07:12 -12.36492 130.73356 5224 ft 297 kts 289°
2026-03-29 07:12 -12.35792 130.71393 6043 ft 300 kts 289°
2026-03-29 07:12 -12.34839 130.69462 6833 ft 298 kts 307°
2026-03-29 07:12 -12.33533 130.67848 7714 ft 298 kts 310°
2026-03-29 07:13 -12.32175 130.66178 8396 ft 304 kts 309°
2026-03-29 07:13 -12.30890 130.64505 9316 ft 307 kts 306°
2026-03-29 07:13 -12.29652 130.62734 10177 ft 306 kts 305°
2026-03-29 07:13 -12.28383 130.60901 10559 ft 328 kts 305°
2026-03-29 07:14 -12.27000 130.58928 10752 ft 355 kts 306°
2026-03-29 07:14 -12.25518 130.56838 11235 ft 370 kts 306°
2026-03-29 07:14 -12.23987 130.54690 12040 ft 377 kts 306°
2026-03-29 07:14 -12.22456 130.52509 13054 ft 379 kts 303°
2026-03-29 07:15 -12.21097 130.50190 13979 ft 382 kts 299°
2026-03-29 07:15 -12.19847 130.47771 14747 ft 389 kts 297°
2026-03-29 07:15 -12.18606 130.45279 15458 ft 396 kts 297°
2026-03-29 07:15 -12.17348 130.42750 16179 ft 403 kts 297°
2026-03-29 07:16 -12.16058 130.40189 16944 ft 407 kts 297°
2026-03-29 07:16 -12.14739 130.37607 17717 ft 412 kts 298°
2026-03-29 07:16 -12.13395 130.35001 18395 ft 418 kts 298°
2026-03-29 07:16 -12.12026 130.32363 19016 ft 423 kts 298°
2026-03-29 07:17 -12.10633 130.29690 19662 ft 427 kts 298°
2026-03-29 07:17 -12.09231 130.27003 20312 ft 431 kts 298°
2026-03-29 07:17 -12.07813 130.24288 20947 ft 435 kts 298°
2026-03-29 07:17 -12.06379 130.21544 21558 ft 440 kts 298°
2026-03-29 07:18 -12.04926 130.18763 22105 ft 447 kts 298°
2026-03-29 07:18 -12.03453 130.15945 22663 ft 452 kts 297°
2026-03-29 07:18 -12.01967 130.13101 23263 ft 456 kts 297°
2026-03-29 07:18 -12.00471 130.10238 23836 ft 458 kts 297°
2026-03-29 07:19 -11.98972 130.07372 24361 ft 461 kts 297°
2026-03-29 07:19 -11.97454 130.04470 24835 ft 466 kts 297°
2026-03-29 07:19 -11.95919 130.01537 25294 ft 470 kts 297°
2026-03-29 07:19 -11.94460 129.98749 25718 ft 474 kts 297°
2026-03-29 07:20 -11.92899 129.95768 26180 ft 478 kts 297°
2026-03-29 07:20 -11.91324 129.92760 26660 ft 482 kts 297°
2026-03-29 07:20 -11.89735 129.89727 27125 ft 486 kts 297°
2026-03-29 07:20 -11.88138 129.86679 27575 ft 490 kts 297°
2026-03-29 07:21 -11.86524 129.83600 28032 ft 494 kts 297°
2026-03-29 07:21 -11.84897 129.80496 28475 ft 498 kts 297°
2026-03-29 07:21 -11.83258 129.77372 28921 ft 501 kts 297°
2026-03-29 07:21 -11.81626 129.74261 29321 ft 505 kts 297°
2026-03-29 07:22 -11.79952 129.71041 29763 ft 509 kts 295°
2026-03-29 07:22 -11.78687 129.67680 30100 ft 510 kts 283°
2026-03-29 07:22 -11.77870 129.64152 30485 ft 510 kts 280°
2026-03-29 07:22 -11.77175 129.60599 30878 ft 511 kts 279°
2026-03-29 07:23 -11.76508 129.57043 31325 ft 510 kts 279°
2026-03-29 07:23 -11.75822 129.53493 31829 ft 508 kts 279°
2026-03-29 07:23 -11.75109 129.49975 32365 ft 506 kts 280°
2026-03-29 07:23 -11.74369 129.46471 32913 ft 503 kts 281°
2026-03-29 07:24 -11.73624 129.43043 33423 ft 501 kts 281°
2026-03-29 07:24 -11.72861 129.39581 33917 ft 500 kts 281°
2026-03-29 07:24 -11.72086 129.36081 34340 ft 498 kts 281°
2026-03-29 07:24 -11.71332 129.32679 34688 ft 498 kts 281°
2026-03-29 07:25 -11.70569 129.29228 35027 ft 498 kts 281°
2026-03-29 07:25 -11.69810 129.25792 35431 ft 496 kts 281°
2026-03-29 07:25 -11.69053 129.22360 35857 ft 494 kts 281°
2026-03-29 07:25 -11.68300 129.18947 36268 ft 492 kts 281°
2026-03-29 07:26 -11.67550 129.15546 36636 ft 491 kts 282°
2026-03-29 07:26 -11.66802 129.12152 36976 ft 491 kts 282°
2026-03-29 07:26 -11.66053 129.08760 37279 ft 490 kts 282°
2026-03-29 07:26 -11.65304 129.05367 37611 ft 490 kts 282°
2026-03-29 07:27 -11.64555 129.01981 37837 ft 491 kts 282°
2026-03-29 07:27 -11.63086 128.95341 37891 ft 498 kts 282°
2026-03-29 07:28 -11.61548 128.88397 37904 ft 505 kts 282°
2026-03-29 07:28 -11.59991 128.81378 37897 ft 509 kts 282°
2026-03-29 07:29 -11.58425 128.74323 37895 ft 511 kts 282°
2026-03-29 07:29 -11.56854 128.67259 37888 ft 511 kts 282°
2026-03-29 07:30 -11.55549 128.61395 37885 ft 509 kts 282°
2026-03-29 07:30 -11.53985 128.54377 37885 ft 506 kts 282°
2026-03-29 07:31 -11.52427 128.47392 37888 ft 504 kts 282°
2026-03-29 07:31 -11.50872 128.40431 37892 ft 503 kts 282°
2026-03-29 07:32 -11.49321 128.33493 37893 ft 502 kts 282°
2026-03-29 07:32 -11.47770 128.26565 37891 ft 501 kts 282°
2026-03-29 07:33 -11.46215 128.19627 37892 ft 502 kts 282°
2026-03-29 07:33 -11.44660 128.12690 37892 ft 503 kts 282°
2026-03-29 07:34 -11.43400 128.05690 37895 ft 503 kts 274°
2026-03-29 07:34 -11.43307 127.98777 37893 ft 502 kts 265°
2026-03-29 07:35 -11.43807 127.91676 37887 ft 503 kts 264°
2026-03-29 07:35 -11.44324 127.84559 37893 ft 504 kts 265°
2026-03-29 07:36 -11.44803 127.77426 37890 ft 504 kts 265°
2026-03-29 07:36 -11.45259 127.70288 37890 ft 505 kts 265°
2026-03-29 07:37 -11.45709 127.63154 37893 ft 505 kts 265°
2026-03-29 07:37 -11.46161 127.56015 37888 ft 504 kts 265°
2026-03-29 07:38 -11.46608 127.48932 37893 ft 504 kts 265°
2026-03-29 07:38 -11.47057 127.41812 37889 ft 503 kts 265°
2026-03-29 07:39 -11.47503 127.34693 37896 ft 503 kts 265°
2026-03-29 07:39 -11.47948 127.27574 37888 ft 503 kts 265°
2026-03-29 07:40 -11.48391 127.20457 37895 ft 503 kts 265°
2026-03-29 07:40 -11.48833 127.13331 37895 ft 503 kts 265°
2026-03-29 07:41 -11.49272 127.06208 37892 ft 504 kts 265°
2026-03-29 07:41 -11.49698 126.99281 37893 ft 504 kts 265°
2026-03-29 07:42 -11.50135 126.92150 37895 ft 504 kts 265°
2026-03-29 07:42 -11.50570 126.85014 37892 ft 504 kts 265°
2026-03-29 07:43 -11.51004 126.77874 37892 ft 505 kts 265°
2026-03-29 07:43 -11.51437 126.70734 37891 ft 505 kts 265°
2026-03-29 07:44 -11.51400 126.63570 37914 ft 507 kts 274°
2026-03-29 07:44 -11.50178 126.56490 37901 ft 508 kts 281°
2026-03-29 07:45 -11.48620 126.49460 37893 ft 508 kts 282°
2026-03-29 07:45 -11.47074 126.42425 37892 ft 508 kts 282°
2026-03-29 07:46 -11.45562 126.35384 37894 ft 508 kts 281°
2026-03-29 07:46 -11.44064 126.28343 37892 ft 508 kts 281°
2026-03-29 07:47 -11.42565 126.21301 37890 ft 508 kts 281°
2026-03-29 07:47 -11.41062 126.14257 37894 ft 508 kts 281°
2026-03-29 07:48 -11.39558 126.07222 37891 ft 508 kts 281°
2026-03-29 07:48 -11.38051 126.00186 37891 ft 508 kts 281°
2026-03-29 07:49 -11.36578 125.93318 37893 ft 508 kts 281°
2026-03-29 07:49 -11.35068 125.86282 37890 ft 508 kts 281°
2026-03-29 07:50 -11.33557 125.79247 37890 ft 508 kts 281°
2026-03-29 07:50 -11.32053 125.72258 37884 ft 508 kts 282°
2026-03-29 07:51 -11.30539 125.65228 37890 ft 509 kts 282°
2026-03-29 07:51 -11.29020 125.58184 37890 ft 509 kts 282°
2026-03-29 07:52 -11.27499 125.51144 37887 ft 509 kts 282°
2026-03-29 07:52 -11.25975 125.44093 37900 ft 509 kts 282°
2026-03-29 07:53 -11.24450 125.37046 37885 ft 510 kts 282°
2026-03-29 07:53 -11.22922 125.29994 37883 ft 510 kts 282°
2026-03-29 07:54 -11.21393 125.22949 37885 ft 510 kts 282°
2026-03-29 07:54 -11.19863 125.15903 37891 ft 510 kts 282°
2026-03-29 07:55 -11.18329 125.08849 37878 ft 510 kts 282°
2026-03-29 07:55 -11.16795 125.01804 37880 ft 510 kts 282°
2026-03-29 07:56 -11.15304 124.94965 37885 ft 510 kts 282°
2026-03-29 07:56 -11.13766 124.87914 37879 ft 510 kts 282°
2026-03-29 07:57 -11.12227 124.80871 37891 ft 510 kts 282°
2026-03-29 07:57 -11.10683 124.73811 37882 ft 511 kts 282°
2026-03-29 07:58 -11.09148 124.66801 37881 ft 511 kts 282°
2026-03-29 07:58 -11.07601 124.59742 37874 ft 511 kts 282°
2026-03-29 07:59 -11.06042 124.52680 37874 ft 512 kts 282°
2026-03-29 07:59 -11.04454 124.45614 37866 ft 512 kts 282°
2026-03-29 08:00 -11.02862 124.38548 37879 ft 512 kts 282°
2026-03-29 08:00 -11.01272 124.31483 37882 ft 512 kts 282°
2026-03-29 08:01 -10.99685 124.24426 37886 ft 513 kts 282°
2026-03-29 08:01 -10.98093 124.17356 37864 ft 513 kts 282°
2026-03-29 08:02 -10.96498 124.10277 37872 ft 513 kts 282°
2026-03-29 08:02 -10.94901 124.03199 37872 ft 513 kts 282°
2026-03-29 08:03 -10.93346 123.96316 37867 ft 513 kts 282°
2026-03-29 08:03 -10.91744 123.89237 37864 ft 514 kts 282°
2026-03-29 08:04 -10.90140 123.82151 37875 ft 514 kts 282°
2026-03-29 08:04 -10.88533 123.75063 37864 ft 514 kts 282°
2026-03-29 08:05 -10.86925 123.67976 37869 ft 514 kts 282°
2026-03-29 08:05 -10.85313 123.60881 37874 ft 514 kts 282°
2026-03-29 08:06 -10.83701 123.53797 37863 ft 514 kts 282°
2026-03-29 08:06 -10.82086 123.46704 37867 ft 514 kts 282°
2026-03-29 08:07 -10.80481 123.39662 37869 ft 514 kts 282°
2026-03-29 08:07 -10.78864 123.32578 37862 ft 514 kts 282°
2026-03-29 08:08 -10.77244 123.25487 37869 ft 514 kts 282°
2026-03-29 08:08 -10.75625 123.18407 37871 ft 515 kts 283°
2026-03-29 08:09 -10.74003 123.11322 37865 ft 515 kts 283°
2026-03-29 08:09 -10.72377 123.04230 37869 ft 515 kts 283°
2026-03-29 08:10 -10.70796 122.97339 37871 ft 515 kts 283°
2026-03-29 08:10 -10.69168 122.90253 37868 ft 515 kts 283°
2026-03-29 08:11 -10.66723 122.79620 37861 ft 515 kts 283°
2026-03-29 08:11 -10.65090 122.72534 37869 ft 515 kts 283°
2026-03-29 08:12 -10.63454 122.65437 37862 ft 515 kts 283°
2026-03-29 08:12 -10.61817 122.58347 37861 ft 515 kts 283°
2026-03-29 08:13 -10.60178 122.51252 37876 ft 516 kts 283°
2026-03-29 08:13 -10.58537 122.44157 37873 ft 516 kts 283°
2026-03-29 08:14 -10.56894 122.37066 37875 ft 516 kts 283°
2026-03-29 08:14 -10.55247 122.29959 37873 ft 516 kts 283°
2026-03-29 08:15 -10.53599 122.22859 37867 ft 516 kts 283°
2026-03-29 08:15 -10.51949 122.15755 37864 ft 517 kts 283°
2026-03-29 08:16 -10.50296 122.08647 37868 ft 517 kts 283°
2026-03-29 08:16 -10.48918 122.02732 37873 ft 518 kts 283°
2026-03-29 08:17 -10.47311 121.95834 37865 ft 518 kts 283°
2026-03-29 08:17 -10.45649 121.88707 37875 ft 518 kts 283°
2026-03-29 08:18 -10.43984 121.81576 37870 ft 518 kts 283°
2026-03-29 08:18 -10.42318 121.74452 37859 ft 518 kts 283°
2026-03-29 08:19 -10.40654 121.67338 37873 ft 518 kts 283°
2026-03-29 08:19 -10.38985 121.60214 37869 ft 518 kts 283°
2026-03-29 08:20 -10.37317 121.53103 37868 ft 518 kts 284°
2026-03-29 08:20 -10.35647 121.45985 37868 ft 518 kts 284°
2026-03-29 08:21 -10.33975 121.38872 37869 ft 518 kts 284°
2026-03-29 08:21 -10.32304 121.31768 37869 ft 518 kts 284°
2026-03-29 08:22 -10.30629 121.24655 37867 ft 518 kts 284°
2026-03-29 08:22 -10.28952 121.17540 37863 ft 518 kts 284°
2026-03-29 08:23 -10.27273 121.10425 37866 ft 518 kts 284°
2026-03-29 08:23 -10.25591 121.03305 37869 ft 519 kts 284°
2026-03-29 08:24 -10.23950 120.96365 37867 ft 519 kts 284°
2026-03-29 08:24 -10.22265 120.89245 37868 ft 519 kts 284°
2026-03-29 08:25 -10.20577 120.82118 37867 ft 519 kts 284°
2026-03-29 08:25 -10.18885 120.74986 37872 ft 519 kts 284°
2026-03-29 08:26 -10.17205 120.67908 37878 ft 519 kts 284°
2026-03-29 08:26 -10.15512 120.60785 37882 ft 520 kts 284°
2026-03-29 08:27 -10.13815 120.53649 37882 ft 520 kts 284°
2026-03-29 08:27 -10.12118 120.46522 37888 ft 519 kts 284°
2026-03-29 08:28 -10.10419 120.39393 37878 ft 519 kts 284°
2026-03-29 08:28 -10.08721 120.32277 37890 ft 519 kts 284°
2026-03-29 08:29 -10.07021 120.25159 37890 ft 519 kts 284°
2026-03-29 08:29 -10.05321 120.18048 37889 ft 519 kts 284°
2026-03-29 08:30 -10.03617 120.10926 37875 ft 519 kts 284°
2026-03-29 08:30 -10.01902 120.03769 37881 ft 519 kts 284°
2026-03-29 08:31 -10.00258 119.96903 37874 ft 519 kts 284°
2026-03-29 08:31 -9.98562 119.89796 37867 ft 519 kts 284°
2026-03-29 08:32 -9.96864 119.82677 37877 ft 519 kts 284°
2026-03-29 08:32 -9.95162 119.75553 37876 ft 520 kts 284°
2026-03-29 08:33 -9.93458 119.68428 37873 ft 520 kts 284°
2026-03-29 08:33 -9.91751 119.61298 37869 ft 520 kts 284°
2026-03-29 08:34 -9.90043 119.54173 37876 ft 520 kts 284°
2026-03-29 08:34 -9.88334 119.47045 37867 ft 520 kts 284°
2026-03-29 08:35 -9.86621 119.39914 37881 ft 520 kts 284°
2026-03-29 08:35 -9.84912 119.32802 37868 ft 519 kts 284°
2026-03-29 08:36 -9.83201 119.25692 37874 ft 518 kts 284°
2026-03-29 08:36 -9.81492 119.18596 37863 ft 518 kts 284°
2026-03-29 08:37 -9.79786 119.11517 37867 ft 516 kts 284°
2026-03-29 08:37 -9.78081 119.04450 37860 ft 515 kts 284°
2026-03-29 08:38 -9.76426 118.97599 37861 ft 514 kts 284°
2026-03-29 08:38 -9.74725 118.90563 37866 ft 514 kts 284°
2026-03-29 08:39 -9.73020 118.83518 37849 ft 514 kts 284°
2026-03-29 08:39 -9.71317 118.76486 37863 ft 514 kts 284°
2026-03-29 08:40 -9.69610 118.69445 37860 ft 515 kts 284°
2026-03-29 08:40 -9.67910 118.62439 37855 ft 515 kts 284°
2026-03-29 08:41 -9.66198 118.55390 37861 ft 515 kts 284°
2026-03-29 08:41 -9.64484 118.48339 37847 ft 516 kts 284°
2026-03-29 08:42 -9.62767 118.41284 37859 ft 516 kts 284°
2026-03-29 08:42 -9.61048 118.34228 37855 ft 516 kts 285°
2026-03-29 08:43 -9.59328 118.27172 37854 ft 516 kts 285°
2026-03-29 08:43 -9.57612 118.20138 37845 ft 507 kts 285°
2026-03-29 08:44 -9.55931 118.13256 37853 ft 506 kts 285°
2026-03-29 08:44 -9.54246 118.06363 37837 ft 496 kts 285°
2026-03-29 08:45 -9.53424 118.02998 37580 ft 488 kts 285°
2026-03-29 08:45 -9.52647 117.99824 37211 ft 482 kts 285°
2026-03-29 08:45 -9.51849 117.96566 36728 ft 479 kts 285°
2026-03-29 08:45 -9.51047 117.93292 36216 ft 477 kts 285°
2026-03-29 08:46 -9.50250 117.90040 35762 ft 474 kts 285°
2026-03-29 08:46 -9.49459 117.86817 35338 ft 470 kts 285°
2026-03-29 08:46 -9.48677 117.83626 34929 ft 461 kts 284°
2026-03-29 08:46 -9.47910 117.80499 34305 ft 454 kts 284°
2026-03-29 08:47 -9.47150 117.77402 33489 ft 452 kts 284°
2026-03-29 08:47 -9.46393 117.74321 32734 ft 454 kts 284°
2026-03-29 08:47 -9.45632 117.71223 32323 ft 452 kts 284°
2026-03-29 08:47 -9.44874 117.68137 31872 ft 451 kts 284°
2026-03-29 08:48 -9.44119 117.65067 31427 ft 448 kts 284°
2026-03-29 08:48 -9.43369 117.62017 30990 ft 445 kts 284°
2026-03-29 08:48 -9.42618 117.58980 30545 ft 443 kts 285°
2026-03-29 08:48 -9.41821 117.55979 30116 ft 441 kts 286°
2026-03-29 08:49 -9.40991 117.52998 29630 ft 439 kts 286°
2026-03-29 08:49 -9.40153 117.50037 29143 ft 436 kts 286°
2026-03-29 08:49 -9.39324 117.47104 28683 ft 432 kts 286°
2026-03-29 08:49 -9.38504 117.44184 28233 ft 429 kts 286°
2026-03-29 08:50 -9.37693 117.41284 27795 ft 426 kts 286°
2026-03-29 08:50 -9.36895 117.38416 27365 ft 423 kts 286°
2026-03-29 08:50 -9.36101 117.35556 26942 ft 420 kts 286°
2026-03-29 08:50 -9.35314 117.32723 26508 ft 417 kts 285°
2026-03-29 08:51 -9.34532 117.29907 26090 ft 415 kts 285°
2026-03-29 08:51 -9.33753 117.27103 25659 ft 412 kts 285°
2026-03-29 08:51 -9.32979 117.24317 25247 ft 410 kts 285°
2026-03-29 08:51 -9.32206 117.21535 24805 ft 409 kts 285°
2026-03-29 08:52 -9.31446 117.18803 24382 ft 408 kts 285°
2026-03-29 08:52 -9.30667 117.16004 23955 ft 407 kts 285°
2026-03-29 08:52 -9.29901 117.13253 23538 ft 406 kts 285°
2026-03-29 08:52 -9.29146 117.10539 23055 ft 405 kts 285°
2026-03-29 08:53 -9.28374 117.07769 22594 ft 403 kts 285°
2026-03-29 08:53 -9.27616 117.05046 22169 ft 400 kts 285°
2026-03-29 08:53 -9.27135 117.02359 21783 ft 391 kts 269°
2026-03-29 08:53 -9.27429 116.99807 21759 ft 378 kts 258°
2026-03-29 08:54 -9.27928 116.97200 21672 ft 380 kts 257°
2026-03-29 08:54 -9.28442 116.94579 21584 ft 378 kts 258°
2026-03-29 08:54 -9.28943 116.91978 21495 ft 375 kts 258°
2026-03-29 08:54 -9.29426 116.89401 21415 ft 371 kts 258°
2026-03-29 08:55 -9.29897 116.86843 21331 ft 369 kts 258°
2026-03-29 08:55 -9.30363 116.84283 21259 ft 370 kts 258°
2026-03-29 08:55 -9.30830 116.81708 21185 ft 373 kts 258°
2026-03-29 08:55 -9.31298 116.79118 21106 ft 374 kts 258°
2026-03-29 08:56 -9.31767 116.76522 21025 ft 375 kts 258°
2026-03-29 08:56 -9.32236 116.73927 20936 ft 375 kts 258°
2026-03-29 08:56 -9.32707 116.71318 20846 ft 383 kts 258°
2026-03-29 08:56 -9.33200 116.68593 20797 ft 400 kts 258°
2026-03-29 08:57 -9.33698 116.65832 20691 ft 398 kts 258°
2026-03-29 08:57 -9.34195 116.63067 20638 ft 405 kts 258°
2026-03-29 08:57 -9.34714 116.60191 20658 ft 423 kts 259°
2026-03-29 08:57 -9.35243 116.57249 20658 ft 428 kts 258°
2026-03-29 08:58 -9.35781 116.54261 20421 ft 435 kts 258°
2026-03-29 08:58 -9.36319 116.51260 20255 ft 431 kts 258°
2026-03-29 08:58 -9.36852 116.48286 20159 ft 426 kts 258°
2026-03-29 08:58 -9.37379 116.45351 20060 ft 423 kts 258°
2026-03-29 08:59 -9.37904 116.42423 19968 ft 423 kts 258°
2026-03-29 08:59 -9.38430 116.39493 19881 ft 423 kts 258°
2026-03-29 08:59 -9.38956 116.36562 19791 ft 423 kts 258°
2026-03-29 08:59 -9.39481 116.33634 19703 ft 423 kts 258°
2026-03-29 09:00 -9.39998 116.30745 19612 ft 423 kts 258°
2026-03-29 09:00 -9.40523 116.27813 19523 ft 423 kts 258°
2026-03-29 09:00 -9.41054 116.24844 19434 ft 423 kts 258°
2026-03-29 09:00 -9.41549 116.21949 19338 ft 423 kts 262°
2026-03-29 09:01 -9.41705 116.18974 19241 ft 423 kts 269°
2026-03-29 09:01 -9.41640 116.15997 19164 ft 423 kts 271°
2026-03-29 09:01 -9.41518 116.13020 19074 ft 424 kts 271°
2026-03-29 09:01 -9.41394 116.10038 18981 ft 424 kts 271°
2026-03-29 09:02 -9.41289 116.07057 18890 ft 424 kts 271°
2026-03-29 09:02 -9.41203 116.04074 18789 ft 423 kts 270°
2026-03-29 09:02 -9.41132 116.01098 18717 ft 423 kts 270°
2026-03-29 09:02 -9.41074 115.98323 18618 ft 422 kts 270°
2026-03-29 09:03 -9.41016 115.95348 18528 ft 421 kts 270°
2026-03-29 09:03 -9.40960 115.92391 18440 ft 420 kts 270°
2026-03-29 09:03 -9.40923 115.90428 18381 ft 420 kts 270°
2026-03-29 09:03 -9.40867 115.87478 18285 ft 419 kts 270°
2026-03-29 09:04 -9.40811 115.84527 18199 ft 419 kts 270°
2026-03-29 09:04 -9.40753 115.81585 18109 ft 418 kts 270°
2026-03-29 09:04 -9.40696 115.78636 17997 ft 418 kts 270°
2026-03-29 09:04 -9.40638 115.75701 17903 ft 417 kts 270°
2026-03-29 09:05 -9.40579 115.72761 17804 ft 417 kts 270°
2026-03-29 09:05 -9.40521 115.69833 17718 ft 416 kts 270°
2026-03-29 09:05 -9.40463 115.66909 17627 ft 415 kts 270°
2026-03-29 09:05 -9.40404 115.63986 17527 ft 415 kts 270°
2026-03-29 09:06 -9.40345 115.61063 17445 ft 414 kts 270°
2026-03-29 09:06 -9.40286 115.58151 17358 ft 414 kts 270°
2026-03-29 09:06 -9.40227 115.55238 17270 ft 413 kts 270°
2026-03-29 09:06 -9.40168 115.52331 17181 ft 413 kts 270°
2026-03-29 09:07 -9.40108 115.49424 17095 ft 413 kts 270°
2026-03-29 09:07 -9.40049 115.46520 17005 ft 412 kts 270°
2026-03-29 09:07 -9.39989 115.43620 16909 ft 410 kts 270°
2026-03-29 09:07 -9.39930 115.40782 16804 ft 399 kts 270°
2026-03-29 09:08 -9.39873 115.37950 16315 ft 403 kts 270°
2026-03-29 09:08 -9.39818 115.35132 15885 ft 400 kts 270°
2026-03-29 09:08 -9.39763 115.32327 15469 ft 396 kts 270°
2026-03-29 09:08 -9.39709 115.29551 15059 ft 392 kts 270°
2026-03-29 09:09 -9.39654 115.26806 14651 ft 389 kts 270°
2026-03-29 09:09 -9.39600 115.24076 14233 ft 386 kts 270°
2026-03-29 09:09 -9.39546 115.21368 13826 ft 383 kts 270°
2026-03-29 09:09 -9.39492 115.18678 13389 ft 381 kts 270°
2026-03-29 09:10 -9.39438 115.16005 12934 ft 378 kts 270°
2026-03-29 09:10 -9.39384 115.13351 12504 ft 375 kts 270°
2026-03-29 09:10 -9.39331 115.10725 12111 ft 372 kts 270°
2026-03-29 09:10 -9.39278 115.08119 11716 ft 368 kts 270°
2026-03-29 09:11 -9.39225 115.05543 11328 ft 365 kts 271°
2026-03-29 09:11 -9.39173 115.02979 10981 ft 361 kts 271°
2026-03-29 09:11 -9.39109 115.00500 10682 ft 352 kts 274°
2026-03-29 09:11 -9.38571 114.98273 10363 ft 344 kts 297°
2026-03-29 09:12 -9.37189 114.96339 10068 ft 337 kts 319°
2026-03-29 09:12 -9.35316 114.95040 9737 ft 314 kts 336°
2026-03-29 09:12 -9.33338 114.94334 9282 ft 293 kts 353°
2026-03-29 09:12 -9.31353 114.94160 8870 ft 282 kts 360°
2026-03-29 09:13 -9.29639 114.94083 8563 ft 267 kts
2026-03-29 09:13 -9.27820 114.94008 8202 ft 259 kts
2026-03-29 09:13 -9.26022 114.93933 7882 ft 258 kts
2026-03-29 09:13 -9.24227 114.93855 7556 ft 258 kts
2026-03-29 09:14 -9.22437 114.93772 7229 ft 257 kts 360°
2026-03-29 09:14 -9.20657 114.93686 6898 ft 252 kts
2026-03-29 09:14 -9.18936 114.93600 6577 ft 243 kts
2026-03-29 09:14 -9.17277 114.93517 6275 ft 236 kts
2026-03-29 09:15 -9.15652 114.93435 6015 ft 232 kts 360°
2026-03-29 09:15 -9.14045 114.93353 5702 ft 231 kts 360°
2026-03-29 09:15 -9.12444 114.93272 5402 ft 229 kts
2026-03-29 09:15 -9.10858 114.93191 5104 ft 228 kts
2026-03-29 09:16 -9.09282 114.93110 4819 ft 226 kts
2026-03-29 09:16 -9.06174 114.92950 4235 ft 221 kts 360°
2026-03-29 09:16 -9.04655 114.92870 4049 ft 216 kts 360°
2026-03-29 09:17 -9.03139 114.92780 3997 ft 220 kts 359°
2026-03-29 09:17 -9.01617 114.92686 3923 ft 219 kts 360°
2026-03-29 09:17 -9.00100 114.92593 3848 ft 217 kts 359°
2026-03-29 09:17 -8.98601 114.92500 3802 ft 215 kts 359°
2026-03-29 09:18 -8.97110 114.92409 3743 ft 214 kts 359°
2026-03-29 09:18 -8.95632 114.92318 3678 ft 213 kts
2026-03-29 09:18 -8.94156 114.92228 3649 ft 214 kts 359°
2026-03-29 09:18 -8.92660 114.92137 3599 ft 216 kts 359°
2026-03-29 09:19 -8.91158 114.92045 3541 ft 217 kts 359°
2026-03-29 09:19 -8.89658 114.91953 3480 ft 215 kts 360°
2026-03-29 09:19 -8.88165 114.91862 3437 ft 214 kts 359°
2026-03-29 09:19 -8.86680 114.91771 3377 ft 213 kts 359°
2026-03-29 09:20 -8.85203 114.91681 3328 ft 214 kts 359°
2026-03-29 09:20 -8.83719 114.91590 3280 ft 214 kts 359°
2026-03-29 09:20 -8.82230 114.91500 3237 ft 215 kts 359°
2026-03-29 09:20 -8.80738 114.91408 3186 ft 216 kts 359°
2026-03-29 09:21 -8.79268 114.91318 3119 ft 210 kts 359°
2026-03-29 09:21 -8.77847 114.91231 3052 ft 199 kts
2026-03-29 09:21 -8.76544 114.91507 2993 ft 194 kts 37°
2026-03-29 09:21 -8.75691 114.92517 2935 ft 190 kts 69°
2026-03-29 09:22 -8.75455 114.93821 2874 ft 186 kts 90°
2026-03-29 09:22 -8.75455 114.95100 2780 ft 184 kts 91°
2026-03-29 09:22 -8.75471 114.96382 2723 ft 181 kts 91°
2026-03-29 09:22 -8.75485 114.97666 2633 ft 184 kts 91°
2026-03-29 09:23 -8.75497 114.98963 2539 ft 186 kts 91°
2026-03-29 09:23 -8.75484 115.00244 2386 ft 177 kts 89°
2026-03-29 09:23 -8.75436 115.01480 2251 ft 175 kts 89°
2026-03-29 09:23 -8.75389 115.02681 2103 ft 166 kts 89°
2026-03-29 09:24 -8.75343 115.03819 1972 ft 160 kts 90°
2026-03-29 09:24 -8.75299 115.04933 1882 ft 158 kts 90°
2026-03-29 09:24 -8.75256 115.06043 1768 ft 158 kts 90°
2026-03-29 09:24 -8.75213 115.07130 1543 ft 148 kts 90°
2026-03-29 09:25 -8.75175 115.08128 1395 ft 140 kts 90°
2026-03-29 09:25 -8.75136 115.09121 1220 ft 142 kts 91°
2026-03-29 09:25 -8.75098 115.10118 1037 ft 142 kts 90°
2026-03-29 09:25 -8.75073 115.11116 858 ft 142 kts 91°
2026-03-29 09:26 -8.75032 115.12096 710 ft 139 kts 91°
2026-03-29 09:26 -8.74985 115.13092 498 ft 142 kts 90°
2026-03-29 09:26 -8.74938 115.14088 294 ft 141 kts 92°
2026-03-29 09:26 -8.74904 115.15052 125 ft 136 kts 90°
2026-03-29 09:27 -8.74869 115.16011 36 ft 131 kts 89°
2026-03-29 09:27 -8.74838 115.16804 32 ft 91 kts 88°
2026-03-29 09:27 -8.74822 115.17212 32 ft 36 kts 86°
2026-03-29 09:27 -8.74808 115.17289 32 ft 14 kts 55°
2026-03-29 09:28 -8.74737 115.17314 34 ft 10 kts
2026-03-29 09:28 -8.74674 115.17296 37 ft 9 kts 315°
2026-03-29 09:28 -8.74657 115.17238 37 ft 9 kts 267°
2026-03-29 09:28 -8.74660 115.17172 37 ft 10 kts 267°
2026-03-29 09:29 -8.74636 115.17127 37 ft 3 kts 339°
2026-03-29 09:29 -8.74616 115.17132 37 ft 3 kts 17°
2026-03-29 09:29 -8.74582 115.17133 38 ft 6 kts 359°
2026-03-29 09:29 -8.74549 115.17132 38 ft 4 kts 358°
2026-03-29 09:30 -8.74534 115.17132 38 ft 0 kts 358°